| time (UTC) | temp F | wind direction | speed knots | gust knots | rain 1hr in | rain 24hr in | rain mn in | humidity % | barometer mb |
| 20260507004513 | 67 | 35 | 4.3 | 13.9 | 0.00 | 0.00 | 0.00 | 79 | 1009.6 |
| 20260507003027 | 68 | 3 | 3.5 | 13.9 | 0.00 | 0.00 | 0.00 | 79 | 1009.8 |
| 20260507001515 | 69 | 346 | 6.1 | 13.0 | 0.00 | 0.00 | 0.00 | 77 | 1009.6 |
| 20260507000036 | 72 | 74 | 5.2 | 11.3 | 0.00 | 0.00 | 0.00 | 75 | 1009.0 |
| 20260506234517 | 72 | 351 | 4.3 | 11.3 | 0.00 | 0.00 | 0.00 | 75 | 1008.9 |
| 20260506233003 | 73 | 47 | 3.5 | 14.8 | 0.00 | 0.00 | 0.00 | 74 | 1008.8 |
| 20260506231520 | 74 | 67 | 4.3 | 13.9 | 0.00 | 0.00 | 0.00 | 73 | 1008.6 |
| 20260506230008 | 76 | 321 | 5.2 | 14.8 | 0.00 | 0.00 | 0.00 | 72 | 1008.4 |
| 20260506224525 | 77 | 10 | 7.0 | 13.9 | 0.00 | 0.00 | 0.00 | 72 | 1008.1 |
| 20260506223015 | 78 | 351 | 5.2 | 12.2 | 0.00 | 0.00 | 0.00 | 71 | 1007.8 |
| 20260506221505 | 80 | 31 | 5.2 | 11.3 | 0.00 | 0.00 | 0.00 | 72 | 1007.5 |
| 20260506220024 | 80 | 11 | 3.5 | 12.2 | 0.00 | 0.00 | 0.00 | 73 | 1007.6 |
| 20260506214513 | 79 | 9 | 3.5 | 11.3 | 0.00 | 0.00 | 0.00 | 75 | 1007.6 |
| 20260506213002 | 81 | 4 | 3.5 | 10.4 | 0.00 | 0.00 | 0.00 | 74 | 1007.5 |
| 20260506211536 | 83 | 79 | 2.6 | 6.1 | 0.00 | 0.00 | 0.00 | 74 | 1007.2 |
| 20260506210017 | 84 | 89 | 1.7 | 8.7 | 0.00 | 0.00 | 0.00 | 73 | 1007.4 |
| 20260506204533 | 85 | 54 | 3.5 | 6.1 | 0.00 | 0.00 | 0.00 | 68 | 1007.2 |
| 20260506203016 | 85 | 92 | 0.9 | 5.2 | 0.00 | 0.00 | 0.00 | 67 | 1007.7 |
| 20260506201507 | 86 | 351 | 2.6 | 6.1 | 0.00 | 0.00 | 0.00 | 65 | 1007.9 |
| 20260506200029 | 88 | 108 | 0.9 | 5.2 | 0.00 | 0.00 | 0.00 | 64 | 1007.8 |
| 20260506194510 | 85 | 117 | 0.9 | 7.0 | 0.00 | 0.00 | 0.00 | 71 | 1007.8 |
| 20260506193100 | 84 | 84 | 0.0 | 5.2 | 0.00 | 0.00 | 0.00 | 74 | 1007.8 |
| 20260506191517 | 84 | 119 | 1.7 | 4.3 | 0.00 | 0.00 | 0.00 | 72 | 1008.1 |
| 20260506190007 | 83 | 67 | 1.7 | 4.3 | 0.00 | 0.00 | 0.00 | 74 | 1008.2 |
| 20260506184525 | 83 | 87 | 1.7 | 5.2 | 0.00 | 0.00 | 0.00 | 76 | 1008.3 |
| 20260506183011 | 83 | 134 | 1.7 | 7.0 | 0.00 | 0.00 | 0.00 | 77 | 1008.5 |
| 20260506181540 | 82 | 84 | 0.9 | 3.5 | 0.00 | 0.00 | 0.00 | 79 | 1008.8 |
| 20260506180016 | 81 | 88 | 0.9 | 6.1 | 0.00 | 0.00 | 0.00 | 81 | 1008.9 |
| 20260506174501 | 79 | 58 | 3.5 | 7.0 | 0.00 | 0.00 | 0.00 | 83 | 1009.0 |
| 20260506173028 | 79 | 79 | 1.7 | 6.1 | 0.00 | 0.00 | 0.00 | 84 | 1009.2 |
| 20260506171514 | 79 | 22 | 0.9 | 5.2 | 0.00 | 0.00 | 0.00 | 85 | 1009.3 |
| 20260506170031 | 78 | 31 | 0.9 | 6.1 | 0.00 | 0.00 | 0.00 | 85 | 1009.3 |
| 20260506164514 | 78 | 28 | 2.6 | 7.0 | 0.00 | 0.00 | 0.00 | 85 | 1009.3 |
| 20260506163004 | 78 | 32 | 1.7 | 5.2 | 0.00 | 0.00 | 0.00 | 86 | 1009.3 |
| 20260506161521 | 77 | 155 | 0.9 | 4.3 | 0.00 | 0.00 | 0.00 | 86 | 1009.4 |
| 20260506160010 | 76 | 64 | 0.0 | 2.6 | 0.00 | 0.00 | 0.00 | 86 | 1009.2 |
| 20260506154526 | 76 | 69 | 0.0 | 2.6 | 0.00 | 0.00 | 0.00 | 85 | 1009.0 |
| 20260506153017 | 75 | 58 | 0.9 | 3.5 | 0.00 | 0.00 | 0.00 | 85 | 1008.8 |
| 20260506151532 | 75 | 98 | 0.9 | 2.6 | 0.00 | 0.00 | 0.00 | 85 | 1008.6 |
| 20260506150020 | 75 | 42 | 0.9 | 1.7 | 0.00 | 0.00 | 0.00 | 85 | 1008.5 |
| 20260506144508 | 75 | 75 | 0.0 | 2.6 | 0.00 | 0.00 | 0.00 | 85 | 1008.5 |
| 20260506143029 | 75 | 112 | 0.0 | 2.6 | 0.00 | 0.00 | 0.00 | 86 | 1008.2 |
| 20260506141517 | 75 | 227 | 0.0 | 2.6 | 0.00 | 0.00 | 0.00 | 86 | 1007.9 |
| 20260506140010 | 75 | 141 | 0.0 | 2.6 | 0.00 | 0.00 | 0.00 | 85 | 1007.7 |
| 20260506134522 | 75 | 103 | 0.9 | 3.5 | 0.00 | 0.00 | 0.00 | 85 | 1007.4 |
| 20260506133008 | 74 | 133 | 1.7 | 4.3 | 0.00 | 0.00 | 0.00 | 85 | 1007.1 |
| 20260506131529 | 74 | 119 | 1.7 | 3.5 | 0.00 | 0.00 | 0.00 | 85 | 1007.1 |
| 20260506130021 | 74 | 195 | 0.9 | 3.5 | 0.00 | 0.00 | 0.00 | 85 | 1007.0 |
| 20260506124507 | 74 | 133 | 0.9 | 3.5 | 0.00 | 0.00 | 0.00 | 85 | 1007.1 |
| 20260506123025 | 74 | 130 | 0.0 | 3.5 | 0.00 | 0.00 | 0.00 | 86 | 1007.1 |
| 20260506121511 | 74 | 268 | 0.0 | 1.7 | 0.00 | 0.00 | 0.00 | 86 | 1006.9 |
| 20260506120029 | 74 | 187 | 0.0 | 3.5 | 0.00 | 0.00 | 0.00 | 86 | 1006.9 |
| 20260506114521 | 74 | 145 | 0.0 | 3.5 | 0.00 | 0.00 | 0.00 | 86 | 1006.8 |
| 20260506113006 | 75 | 71 | 0.9 | 3.5 | 0.00 | 0.00 | 0.00 | 86 | 1006.8 |
| 20260506111524 | 75 | 171 | 0.0 | 0.9 | 0.00 | 0.00 | 0.00 | 86 | 1006.8 |
| 20260506110012 | 75 | 173 | 0.0 | 1.7 | 0.00 | 0.00 | 0.00 | 86 | 1006.8 |
| 20260506104636 | 75 | 173 | 0.0 | 2.6 | 0.00 | 0.00 | 0.00 | 86 | 1006.6 |
| 20260506103021 | 76 | 141 | 0.0 | 3.5 | 0.00 | 0.00 | 0.00 | 86 | 1006.6 |
| 20260506101510 | 76 | 181 | 0.9 | 3.5 | 0.00 | 0.00 | 0.00 | 86 | 1006.5 |
| 20260506100039 | 75 | 172 | 0.9 | 4.3 | 0.00 | 0.00 | 0.00 | 86 | 1006.5 |
| 20260506094518 | 75 | 198 | 0.0 | 4.3 | 0.00 | 0.00 | 0.00 | 86 | 1006.4 |
| 20260506093008 | 75 | 191 | 0.0 | 3.5 | 0.00 | 0.00 | 0.00 | 86 | 1006.3 |
| 20260506091529 | 77 | 146 | 0.0 | 5.2 | 0.00 | 0.00 | 0.00 | 85 | 1006.4 |
| 20260506090015 | 76 | 144 | 1.7 | 5.2 | 0.00 | 0.00 | 0.00 | 86 | 1006.4 |
| 20260506084503 | 76 | 189 | 0.0 | 4.3 | 0.00 | 0.00 | 0.00 | 86 | 1006.5 |
| 20260506083035 | 76 | 166 | 1.7 | 6.1 | 0.00 | 0.00 | 0.00 | 86 | 1006.4 |
| 20260506081511 | 76 | 176 | 1.7 | 3.5 | 0.00 | 0.00 | 0.00 | 85 | 1006.4 |
| 20260506073005 | 76 | 163 | 0.0 | 5.2 | 0.00 | 0.00 | 0.00 | 86 | 1006.9 |
| 20260506071525 | 76 | 164 | 0.9 | 4.3 | 0.00 | 0.00 | 0.00 | 86 | 1007.0 |
| 20260506061507 | 77 | 108 | 1.7 | 7.0 | 0.00 | 0.00 | 0.00 | 85 | 1007.0 |
| 20260506044533 | 77 | 183 | 1.7 | 5.2 | 0.00 | 0.00 | 0.00 | 85 | 1007.0 |
| 20260506043017 | 78 | 115 | 0.9 | 7.0 | 0.00 | 0.00 | 0.00 | 85 | 1006.9 |
| 20260506041506 | 77 | 135 | 1.7 | 7.0 | 0.00 | 0.00 | 0.00 | 85 | 1006.9 |
| 20260506040040 | 78 | 152 | 0.9 | 2.6 | 0.00 | 0.00 | 0.00 | 84 | 1006.7 |
| 20260506034514 | 78 | 104 | 1.7 | 6.1 | 0.00 | 0.00 | 0.00 | 84 | 1006.4 |
| 20260506033004 | 77 | 153 | 1.7 | 7.0 | 0.00 | 0.00 | 0.00 | 85 | 1006.2 |
| 20260506031524 | 78 | 111 | 0.9 | 7.8 | 0.00 | 0.00 | 0.00 | 84 | 1006.2 |
| 20260506030013 | 80 | 173 | 0.9 | 5.2 | 0.00 | 0.00 | 0.00 | 83 | 1005.9 |
| 20260506024540 | 79 | 125 | 2.6 | 7.8 | 0.00 | 0.00 | 0.00 | 83 | 1005.7 |
| 20260506023021 | 81 | 117 | 1.7 | 7.0 | 0.00 | 0.00 | 0.00 | 80 | 1005.6 |
| 20260506021514 | 82 | 140 | 0.0 | 7.8 | 0.00 | 0.00 | 0.00 | 79 | 1005.5 |
| 20260506020031 | 83 | 113 | 1.7 | 4.3 | 0.00 | 0.00 | 0.00 | 77 | 1005.1 |
| 20260506014524 | 83 | 141 | 0.9 | 7.8 | 0.00 | 0.00 | 0.00 | 77 | 1005.0 |
| 20260506013008 | 82 | 117 | 1.7 | 7.0 | 0.00 | 0.00 | 0.00 | 78 | 1004.8 |
| 20260506011530 | 82 | 119 | 1.7 | 4.3 | 0.00 | 0.00 | 0.00 | 76 | 1004.6 |
| 20260506010016 | 83 | 77 | 0.9 | 4.3 | 0.00 | 0.00 | 0.00 | 75 | 1004.3 |